Year,Month,Day,Hour,Minute,Value (Times are PST for temperature in C)
2018,08,14,00,00,17.80
2018,08,14,00,01,17.80
2018,08,14,00,02,17.80
2018,08,14,00,03,17.80
2018,08,14,00,04,17.80
2018,08,14,00,05,17.80
2018,08,14,00,06,17.80
2018,08,14,00,07,17.80
2018,08,14,00,08,17.80
2018,08,14,00,09,17.80
2018,08,14,00,10,17.80
2018,08,14,00,11,17.80
2018,08,14,00,12,17.80
2018,08,14,00,13,17.80
2018,08,14,00,14,17.80
2018,08,14,00,15,17.80
2018,08,14,00,16,17.80
2018,08,14,00,17,17.70
2018,08,14,00,18,17.70
2018,08,14,00,19,17.70
2018,08,14,00,20,17.70
2018,08,14,00,21,17.70
2018,08,14,00,22,17.70
2018,08,14,00,23,17.70
2018,08,14,00,24,17.70
2018,08,14,00,25,17.70
2018,08,14,00,26,17.70
2018,08,14,00,27,17.60
2018,08,14,00,28,17.60
2018,08,14,00,29,17.60
2018,08,14,00,30,17.60
2018,08,14,00,31,17.60
2018,08,14,00,32,17.50
2018,08,14,00,33,17.50
2018,08,14,00,34,17.50
2018,08,14,00,35,17.50
2018,08,14,00,36,17.40
2018,08,14,00,37,17.40
2018,08,14,00,38,17.40
2018,08,14,00,39,17.40
2018,08,14,00,40,17.40
2018,08,14,00,41,17.40
2018,08,14,00,42,17.40
2018,08,14,00,43,17.50
2018,08,14,00,44,17.50
2018,08,14,00,45,17.50
2018,08,14,00,46,17.50
2018,08,14,00,47,17.50
2018,08,14,00,48,17.50
2018,08,14,00,49,17.50
2018,08,14,00,50,17.40
2018,08,14,00,51,17.40
2018,08,14,00,52,17.40
2018,08,14,00,53,17.40
2018,08,14,00,54,17.30
2018,08,14,00,55,17.30
2018,08,14,00,56,17.30
2018,08,14,00,57,17.20
2018,08,14,00,58,17.20
2018,08,14,00,59,17.20
2018,08,14,01,00,17.20
2018,08,14,01,01,17.20
2018,08,14,01,02,17.20
2018,08,14,01,03,17.20
2018,08,14,01,04,17.20
2018,08,14,01,05,17.20
2018,08,14,01,06,17.20
2018,08,14,01,07,17.30
2018,08,14,01,08,17.30
2018,08,14,01,09,17.30
2018,08,14,01,10,17.30
2018,08,14,01,11,17.30
2018,08,14,01,12,17.30
2018,08,14,01,13,17.30
2018,08,14,01,14,17.30
2018,08,14,01,15,17.30
2018,08,14,01,16,17.30
2018,08,14,01,17,17.30
2018,08,14,01,18,17.30
2018,08,14,01,19,17.30
2018,08,14,01,20,17.30
2018,08,14,01,21,17.30
2018,08,14,01,22,17.20
2018,08,14,01,23,17.20
2018,08,14,01,24,17.20
2018,08,14,01,25,17.20
2018,08,14,01,26,17.20
2018,08,14,01,27,17.20
2018,08,14,01,28,17.10
2018,08,14,01,29,17.10
2018,08,14,01,30,17.10
2018,08,14,01,31,17.10
2018,08,14,01,32,17.00
2018,08,14,01,33,17.00
2018,08,14,01,34,17.00
2018,08,14,01,35,17.00
2018,08,14,01,36,17.00
2018,08,14,01,37,16.90
2018,08,14,01,38,16.90
2018,08,14,01,39,16.90
2018,08,14,01,40,16.90
2018,08,14,01,41,16.90
2018,08,14,01,42,16.90
2018,08,14,01,43,16.90
2018,08,14,01,44,16.90
2018,08,14,01,45,16.80
2018,08,14,01,46,16.80
2018,08,14,01,47,16.80
2018,08,14,01,48,16.80
2018,08,14,01,49,16.70
2018,08,14,01,50,16.70
2018,08,14,01,51,16.70
2018,08,14,01,52,16.70
2018,08,14,01,53,16.70
2018,08,14,01,54,16.70
2018,08,14,01,55,16.70
2018,08,14,01,56,16.70
2018,08,14,01,57,16.60
2018,08,14,01,58,16.60
2018,08,14,01,59,16.60
2018,08,14,02,00,16.60
2018,08,14,02,01,16.60
2018,08,14,02,02,16.60
2018,08,14,02,03,16.70
2018,08,14,02,04,16.60
2018,08,14,02,05,16.70
2018,08,14,02,06,16.70
2018,08,14,02,07,16.70
2018,08,14,02,08,16.70
2018,08,14,02,09,16.70
2018,08,14,02,10,16.70
2018,08,14,02,11,16.70
2018,08,14,02,12,16.70
2018,08,14,02,13,16.70
2018,08,14,02,14,16.70
2018,08,14,02,15,16.70
2018,08,14,02,16,16.70
2018,08,14,02,17,16.70
2018,08,14,02,18,16.60
2018,08,14,02,19,16.60
2018,08,14,02,20,16.60
2018,08,14,02,21,16.60
2018,08,14,02,22,16.60
2018,08,14,02,23,16.60
2018,08,14,02,24,16.60
2018,08,14,02,25,16.60
2018,08,14,02,26,16.50
2018,08,14,02,27,16.50
2018,08,14,02,28,16.50
2018,08,14,02,29,16.50
2018,08,14,02,30,16.50
2018,08,14,02,31,16.50
2018,08,14,02,32,16.50
2018,08,14,02,33,16.50
2018,08,14,02,34,16.50
2018,08,14,02,35,16.40
2018,08,14,02,36,16.40
2018,08,14,02,37,16.40
2018,08,14,02,38,16.40
2018,08,14,02,39,16.40
2018,08,14,02,40,16.40
2018,08,14,02,41,16.40
2018,08,14,02,42,16.40
2018,08,14,02,43,16.40
2018,08,14,02,44,16.40
2018,08,14,02,45,16.30
2018,08,14,02,46,16.30
2018,08,14,02,47,16.30
2018,08,14,02,48,16.30
2018,08,14,02,49,16.30
2018,08,14,02,50,16.30
2018,08,14,02,51,16.30
2018,08,14,02,52,16.30
2018,08,14,02,53,16.20
2018,08,14,02,54,16.20
2018,08,14,02,55,16.20
2018,08,14,02,56,16.20
2018,08,14,02,57,16.20
2018,08,14,02,58,16.20
2018,08,14,02,59,16.20
2018,08,14,03,00,16.10
2018,08,14,03,01,16.10
2018,08,14,03,02,16.10
2018,08,14,03,03,16.10
2018,08,14,03,04,16.10
2018,08,14,03,05,16.10
2018,08,14,03,06,16.10
2018,08,14,03,07,16.10
2018,08,14,03,08,16.10
2018,08,14,03,09,16.10
2018,08,14,03,10,16.10
2018,08,14,03,11,16.10
2018,08,14,03,12,16.10
2018,08,14,03,13,16.10
2018,08,14,03,14,16.10
2018,08,14,03,15,16.10
2018,08,14,03,16,16.00
2018,08,14,03,17,16.00
2018,08,14,03,18,16.00
2018,08,14,03,19,16.00
2018,08,14,03,20,16.00
2018,08,14,03,21,16.00
2018,08,14,03,22,16.00
2018,08,14,03,23,16.00
2018,08,14,03,24,16.00
2018,08,14,03,25,16.00
2018,08,14,03,26,16.00
2018,08,14,03,27,16.00
2018,08,14,03,28,16.00
2018,08,14,03,29,16.00
2018,08,14,03,30,16.00
2018,08,14,03,31,16.00
2018,08,14,03,32,15.90
2018,08,14,03,33,15.90
2018,08,14,03,34,15.90
2018,08,14,03,35,15.90
2018,08,14,03,36,15.90
2018,08,14,03,37,15.90
2018,08,14,03,38,15.90
2018,08,14,03,39,15.90
2018,08,14,03,40,15.90
2018,08,14,03,41,15.90
2018,08,14,03,42,15.90
2018,08,14,03,43,15.90
2018,08,14,03,44,15.90
2018,08,14,03,45,15.90
2018,08,14,03,46,15.90
2018,08,14,03,47,15.90
2018,08,14,03,48,15.90
2018,08,14,03,49,15.90
2018,08,14,03,50,15.90
2018,08,14,03,51,15.90
2018,08,14,03,52,15.90
2018,08,14,03,53,15.90
2018,08,14,03,54,15.90
2018,08,14,03,55,15.80
2018,08,14,03,56,15.80
2018,08,14,03,57,15.80
2018,08,14,03,58,15.80
2018,08,14,03,59,15.80
2018,08,14,04,00,15.80
2018,08,14,04,01,15.90
2018,08,14,04,02,15.90
2018,08,14,04,03,15.90
2018,08,14,04,04,15.90
2018,08,14,04,05,15.90
2018,08,14,04,06,15.80
2018,08,14,04,07,15.80
2018,08,14,04,08,15.80
2018,08,14,04,09,15.80
2018,08,14,04,10,15.80
2018,08,14,04,11,15.80
2018,08,14,04,12,15.80
2018,08,14,04,13,15.80
2018,08,14,04,14,15.70
2018,08,14,04,15,15.70
2018,08,14,04,16,15.70
2018,08,14,04,17,15.70
2018,08,14,04,18,15.70
2018,08,14,04,19,15.70
2018,08,14,04,20,15.60
2018,08,14,04,21,15.60
2018,08,14,04,22,15.60
2018,08,14,04,23,15.60
2018,08,14,04,24,15.50
2018,08,14,04,25,15.50
2018,08,14,04,26,15.50
2018,08,14,04,27,15.50
2018,08,14,04,28,15.50
2018,08,14,04,29,15.50
2018,08,14,04,30,15.50
2018,08,14,04,31,15.50
2018,08,14,04,32,15.50
2018,08,14,04,33,15.50
2018,08,14,04,34,15.50
2018,08,14,04,35,15.50
2018,08,14,04,36,15.50
2018,08,14,04,37,15.50
2018,08,14,04,38,15.50
2018,08,14,04,39,15.40
2018,08,14,04,40,15.40
2018,08,14,04,41,15.40
2018,08,14,04,42,15.40
2018,08,14,04,43,15.40
2018,08,14,04,44,15.30
2018,08,14,04,45,15.30
2018,08,14,04,46,15.30
2018,08,14,04,47,15.30
2018,08,14,04,48,15.30
2018,08,14,04,49,15.30
2018,08,14,04,50,15.20
2018,08,14,04,51,15.20
2018,08,14,04,52,15.20
2018,08,14,04,53,15.20
2018,08,14,04,54,15.20
2018,08,14,04,55,15.20
2018,08,14,04,56,15.20
2018,08,14,04,57,15.10
2018,08,14,04,58,15.10
2018,08,14,04,59,15.10
2018,08,14,05,00,15.10
2018,08,14,05,01,15.10
2018,08,14,05,02,15.10
2018,08,14,05,03,15.10
2018,08,14,05,04,15.10
2018,08,14,05,05,15.10
2018,08,14,05,06,15.10
2018,08,14,05,07,15.00
2018,08,14,05,08,15.00
2018,08,14,05,09,15.00
2018,08,14,05,10,15.00
2018,08,14,05,11,15.00
2018,08,14,05,12,15.00
2018,08,14,05,13,15.00
2018,08,14,05,14,15.10
2018,08,14,05,15,15.00
2018,08,14,05,16,15.10
2018,08,14,05,17,15.10
2018,08,14,05,18,15.10
2018,08,14,05,19,15.10
2018,08,14,05,20,15.10
2018,08,14,05,21,15.10
2018,08,14,05,22,15.10
2018,08,14,05,23,15.10
2018,08,14,05,24,15.00
2018,08,14,05,25,15.00
2018,08,14,05,26,15.00
2018,08,14,05,27,15.00
2018,08,14,05,28,15.00
2018,08,14,05,29,15.00
2018,08,14,05,30,15.00
2018,08,14,05,31,15.00
2018,08,14,05,32,15.00
2018,08,14,05,33,14.90
2018,08,14,05,34,14.90
2018,08,14,05,35,14.90
2018,08,14,05,36,14.90
2018,08,14,05,37,14.90
2018,08,14,05,38,14.90
2018,08,14,05,39,14.90
2018,08,14,05,40,14.80
2018,08,14,05,41,14.80
2018,08,14,05,42,14.80
2018,08,14,05,43,14.80
2018,08,14,05,44,14.80
2018,08,14,05,45,14.80
2018,08,14,05,46,14.80
2018,08,14,05,47,14.80
2018,08,14,05,48,14.80
2018,08,14,05,49,14.70
2018,08,14,05,50,14.70
2018,08,14,05,51,14.70
2018,08,14,05,52,14.70
2018,08,14,05,53,14.70
2018,08,14,05,54,14.70
2018,08,14,05,55,14.70
2018,08,14,05,56,14.70
2018,08,14,05,57,14.70
2018,08,14,05,58,14.60
2018,08,14,05,59,14.60
2018,08,14,06,00,14.60
2018,08,14,06,01,14.60
2018,08,14,06,02,14.60
2018,08,14,06,03,14.60
2018,08,14,06,04,14.60
2018,08,14,06,05,14.60
2018,08,14,06,06,14.60
2018,08,14,06,07,14.60
2018,08,14,06,08,14.60
2018,08,14,06,09,14.60
2018,08,14,06,10,14.70
2018,08,14,06,11,14.70
2018,08,14,06,12,14.70
2018,08,14,06,13,14.70
2018,08,14,06,14,14.70
2018,08,14,06,15,14.70
2018,08,14,06,16,14.70
2018,08,14,06,17,14.70
2018,08,14,06,18,14.70
2018,08,14,06,19,14.70
2018,08,14,06,20,14.70
2018,08,14,06,21,14.70
2018,08,14,06,22,14.70
2018,08,14,06,23,14.70
2018,08,14,06,24,14.70
2018,08,14,06,25,14.70
2018,08,14,06,26,14.70
2018,08,14,06,27,14.70
2018,08,14,06,28,14.70
2018,08,14,06,29,14.70
2018,08,14,06,30,14.70
2018,08,14,06,31,14.70
2018,08,14,06,32,14.70
2018,08,14,06,33,14.70
2018,08,14,06,34,14.70
2018,08,14,06,35,14.70
2018,08,14,06,36,14.70
2018,08,14,06,37,14.60
2018,08,14,06,38,14.60
2018,08,14,06,39,14.60
2018,08,14,06,40,14.60
2018,08,14,06,41,14.60
2018,08,14,06,42,14.60
2018,08,14,06,43,14.60
2018,08,14,06,44,14.60
2018,08,14,06,45,14.60
2018,08,14,06,46,14.60
2018,08,14,06,47,14.50
2018,08,14,06,48,14.60
2018,08,14,06,49,14.50
2018,08,14,06,50,14.60
2018,08,14,06,51,14.60
2018,08,14,06,52,14.60
2018,08,14,06,53,14.60
2018,08,14,06,54,14.60
2018,08,14,06,55,14.60
2018,08,14,06,56,14.60
2018,08,14,06,57,14.60
2018,08,14,06,58,14.60
2018,08,14,06,59,14.60
2018,08,14,07,00,14.60
2018,08,14,07,01,14.60
2018,08,14,07,02,14.60
2018,08,14,07,03,14.70
2018,08,14,07,04,14.70
2018,08,14,07,05,14.70
2018,08,14,07,06,14.70
2018,08,14,07,07,14.70
2018,08,14,07,08,14.70
2018,08,14,07,09,14.70
2018,08,14,07,10,14.70
2018,08,14,07,11,14.70
2018,08,14,07,12,14.70
2018,08,14,07,13,14.70
2018,08,14,07,14,14.70
2018,08,14,07,15,14.70
2018,08,14,07,16,14.70
2018,08,14,07,17,14.70
2018,08,14,07,18,14.70
2018,08,14,07,19,14.70
2018,08,14,07,20,14.70
2018,08,14,07,21,14.70
2018,08,14,07,22,14.70
2018,08,14,07,23,14.80
2018,08,14,07,24,14.80
2018,08,14,07,25,14.80
2018,08,14,07,26,14.80
2018,08,14,07,27,14.80
2018,08,14,07,28,14.80
2018,08,14,07,29,14.80
2018,08,14,07,30,14.80
2018,08,14,07,31,14.80
2018,08,14,07,32,14.80
2018,08,14,07,33,14.80
2018,08,14,07,34,14.70
2018,08,14,07,35,14.70
2018,08,14,07,36,14.70
2018,08,14,07,37,14.70
2018,08,14,07,38,14.70
2018,08,14,07,39,14.70
2018,08,14,07,40,14.80
2018,08,14,07,41,14.80
2018,08,14,07,42,14.80
2018,08,14,07,43,14.80
2018,08,14,07,44,14.80
2018,08,14,07,45,14.80
2018,08,14,07,46,14.80
2018,08,14,07,47,14.80
2018,08,14,07,48,14.90
2018,08,14,07,49,14.90
2018,08,14,07,50,14.90
2018,08,14,07,51,14.90
2018,08,14,07,52,14.90
2018,08,14,07,53,14.90
2018,08,14,07,54,14.90
2018,08,14,07,55,14.90
2018,08,14,07,56,15.00
2018,08,14,07,57,15.00
2018,08,14,07,58,15.00
2018,08,14,07,59,15.00
2018,08,14,08,00,15.00
2018,08,14,08,01,15.00
2018,08,14,08,02,15.10
2018,08,14,08,03,15.10
2018,08,14,08,04,15.10
2018,08,14,08,05,15.10
2018,08,14,08,06,15.10
2018,08,14,08,07,15.10
2018,08,14,08,08,15.10
2018,08,14,08,09,15.10
2018,08,14,08,10,15.10
2018,08,14,08,11,15.10
2018,08,14,08,12,15.10
2018,08,14,08,13,15.10
2018,08,14,08,14,15.10
2018,08,14,08,15,15.10
2018,08,14,08,16,15.10
2018,08,14,08,17,15.10
2018,08,14,08,18,15.10
2018,08,14,08,19,15.10
2018,08,14,08,20,15.10
2018,08,14,08,21,15.10
2018,08,14,08,22,15.20
2018,08,14,08,23,15.20
2018,08,14,08,24,15.20
2018,08,14,08,25,15.20
2018,08,14,08,26,15.30
2018,08,14,08,27,15.30
2018,08,14,08,28,15.40
2018,08,14,08,29,15.40
2018,08,14,08,30,15.50
2018,08,14,08,31,15.50
2018,08,14,08,32,15.60
2018,08,14,08,33,15.60
2018,08,14,08,34,15.70
2018,08,14,08,35,15.70
2018,08,14,08,36,15.80
2018,08,14,08,37,15.80
2018,08,14,08,38,15.80
2018,08,14,08,39,15.90
2018,08,14,08,40,15.90
2018,08,14,08,41,15.90
2018,08,14,08,42,15.90
2018,08,14,08,43,16.00
2018,08,14,08,44,16.10
2018,08,14,08,45,16.10
2018,08,14,08,46,16.10
2018,08,14,08,47,16.20
2018,08,14,08,48,16.20
2018,08,14,08,49,16.20
2018,08,14,08,50,16.30
2018,08,14,08,51,16.30
2018,08,14,08,52,16.30
2018,08,14,08,53,16.30
2018,08,14,08,54,16.20
2018,08,14,08,55,16.20
2018,08,14,08,56,16.20
2018,08,14,08,57,16.20
2018,08,14,08,58,16.10
2018,08,14,08,59,16.10
2018,08,14,09,00,16.10
2018,08,14,09,01,16.10
2018,08,14,09,02,16.20
2018,08,14,09,03,16.20
2018,08,14,09,04,16.10
2018,08,14,09,05,16.10
2018,08,14,09,06,16.10
2018,08,14,09,07,16.00
2018,08,14,09,08,16.00
2018,08,14,09,09,15.90
2018,08,14,09,10,16.00
2018,08,14,09,11,16.00
2018,08,14,09,12,16.00
2018,08,14,09,13,16.00
2018,08,14,09,14,16.00
2018,08,14,09,15,16.00
2018,08,14,09,16,16.00
2018,08,14,09,17,16.10
2018,08,14,09,18,16.10
2018,08,14,09,19,16.10
2018,08,14,09,20,16.20
2018,08,14,09,21,16.20
2018,08,14,09,22,16.30
2018,08,14,09,23,16.30
2018,08,14,09,24,16.40
2018,08,14,09,25,16.40
2018,08,14,09,26,16.40
2018,08,14,09,27,16.40
2018,08,14,09,28,16.50
2018,08,14,09,29,16.50
2018,08,14,09,30,16.60
2018,08,14,09,31,16.60
2018,08,14,09,32,16.70
2018,08,14,09,33,16.70
2018,08,14,09,34,16.80
2018,08,14,09,35,16.80
2018,08,14,09,36,16.90
2018,08,14,09,37,16.90
2018,08,14,09,38,17.00
2018,08,14,09,39,17.00
2018,08,14,09,40,17.10
2018,08,14,09,41,17.10
2018,08,14,09,42,17.10
2018,08,14,09,43,17.10
2018,08,14,09,44,17.20
2018,08,14,09,45,17.20
2018,08,14,09,46,17.30
2018,08,14,09,47,17.30
2018,08,14,09,48,17.30
2018,08,14,09,49,17.30
2018,08,14,09,50,17.30
2018,08,14,09,51,17.40
2018,08,14,09,52,17.40
2018,08,14,09,53,17.40
2018,08,14,09,54,17.40
2018,08,14,09,55,17.40
2018,08,14,09,56,17.40
2018,08,14,09,57,17.40
2018,08,14,09,58,17.50
2018,08,14,09,59,17.50
2018,08,14,10,00,17.50
2018,08,14,10,01,17.50
2018,08,14,10,02,17.60
2018,08,14,10,03,17.60
2018,08,14,10,04,17.70
2018,08,14,10,05,17.70
2018,08,14,10,06,17.80
2018,08,14,10,07,17.80
2018,08,14,10,08,17.90
2018,08,14,10,09,17.90
2018,08,14,10,10,17.90
2018,08,14,10,11,18.00
2018,08,14,10,12,18.00
2018,08,14,10,13,18.10
2018,08,14,10,14,18.10
2018,08,14,10,15,18.10
2018,08,14,10,16,18.10
2018,08,14,10,17,18.10
2018,08,14,10,18,18.20
2018,08,14,10,19,18.20
2018,08,14,10,20,18.30
2018,08,14,10,21,18.40
2018,08,14,10,22,18.40
2018,08,14,10,23,18.50
2018,08,14,10,24,18.50
2018,08,14,10,25,18.60
2018,08,14,10,26,18.60
2018,08,14,10,27,18.60
2018,08,14,10,28,18.60
2018,08,14,10,29,18.60
2018,08,14,10,30,18.60
2018,08,14,10,31,18.50
2018,08,14,10,32,18.50
2018,08,14,10,33,18.50
2018,08,14,10,34,18.50
2018,08,14,10,35,18.50
2018,08,14,10,36,18.50
2018,08,14,10,37,18.50
2018,08,14,10,38,18.50
2018,08,14,10,39,18.50
2018,08,14,10,40,18.50
2018,08,14,10,41,18.60
2018,08,14,10,42,18.60
2018,08,14,10,43,18.70
2018,08,14,10,44,18.70
2018,08,14,10,45,18.80
2018,08,14,10,46,18.80
2018,08,14,10,47,18.80
2018,08,14,10,48,18.90
2018,08,14,10,49,18.90
2018,08,14,10,50,18.90
2018,08,14,10,51,19.00
2018,08,14,10,52,19.00
2018,08,14,10,53,19.10
2018,08,14,10,54,19.10
2018,08,14,10,55,19.20
2018,08,14,10,56,19.20
2018,08,14,10,57,19.20
2018,08,14,10,58,19.30
2018,08,14,10,59,19.30
2018,08,14,11,00,19.30
2018,08,14,11,01,19.30
2018,08,14,11,02,19.40
2018,08,14,11,03,19.40
2018,08,14,11,04,19.40
2018,08,14,11,05,19.40
2018,08,14,11,06,19.40
2018,08,14,11,07,19.40
2018,08,14,11,08,19.40
2018,08,14,11,09,19.40
2018,08,14,11,10,19.50
2018,08,14,11,11,19.60
2018,08,14,11,12,19.60
2018,08,14,11,13,19.60
2018,08,14,11,14,19.70
2018,08,14,11,15,19.80
2018,08,14,11,16,19.80
2018,08,14,11,17,19.80
2018,08,14,11,18,19.90
2018,08,14,11,19,20.00
2018,08,14,11,20,20.00
2018,08,14,11,21,20.10
2018,08,14,11,22,20.10
2018,08,14,11,23,20.10
2018,08,14,11,24,20.10
2018,08,14,11,25,20.10
2018,08,14,11,26,20.20
2018,08,14,11,27,20.20
2018,08,14,11,28,20.20
2018,08,14,11,29,20.30
2018,08,14,11,30,20.30
2018,08,14,11,31,20.40
2018,08,14,11,32,20.40
2018,08,14,11,33,20.50
2018,08,14,11,34,20.50
2018,08,14,11,35,20.50
2018,08,14,11,36,20.60
2018,08,14,11,37,20.60
2018,08,14,11,38,20.70
2018,08,14,11,39,20.70
2018,08,14,11,40,20.70
2018,08,14,11,41,20.80
2018,08,14,11,42,20.80
2018,08,14,11,43,20.70
2018,08,14,11,44,20.70
2018,08,14,11,45,20.70
2018,08,14,11,46,20.80
2018,08,14,11,47,20.80
2018,08,14,11,48,20.80
2018,08,14,11,49,20.90
2018,08,14,11,50,20.90
2018,08,14,11,51,20.90
2018,08,14,11,52,20.90
2018,08,14,11,53,20.90
2018,08,14,11,54,20.90
2018,08,14,11,55,20.90
2018,08,14,11,56,20.90
2018,08,14,11,57,21.00
2018,08,14,11,58,21.10
2018,08,14,11,59,21.20
2018,08,14,12,00,21.20
2018,08,14,12,01,21.30
2018,08,14,12,02,21.40
2018,08,14,12,03,21.50
2018,08,14,12,04,21.60
2018,08,14,12,05,21.70
2018,08,14,12,06,21.70
2018,08,14,12,07,21.70
2018,08,14,12,08,21.70
2018,08,14,12,09,21.70
2018,08,14,12,10,21.70
2018,08,14,12,11,21.70
2018,08,14,12,12,21.60
2018,08,14,12,13,21.60
2018,08,14,12,14,21.50
2018,08,14,12,15,21.50
2018,08,14,12,16,21.50
2018,08,14,12,17,21.60
2018,08,14,12,18,21.60
2018,08,14,12,19,21.60
2018,08,14,12,20,21.60
2018,08,14,12,21,21.70
2018,08,14,12,22,21.80
2018,08,14,12,23,21.80
2018,08,14,12,24,21.90
2018,08,14,12,25,22.00
2018,08,14,12,26,22.10
2018,08,14,12,27,22.20
2018,08,14,12,28,22.30
2018,08,14,12,29,22.30
2018,08,14,12,30,22.30
2018,08,14,12,31,22.30
2018,08,14,12,32,22.30
2018,08,14,12,33,22.30
2018,08,14,12,34,22.30
2018,08,14,12,35,22.40
2018,08,14,12,36,22.40
2018,08,14,12,37,22.40
2018,08,14,12,38,22.40
2018,08,14,12,39,22.40
2018,08,14,12,40,22.50
2018,08,14,12,41,22.50
2018,08,14,12,42,22.60
2018,08,14,12,43,22.60
2018,08,14,12,44,22.60
2018,08,14,12,45,22.60
2018,08,14,12,46,22.60
2018,08,14,12,47,22.60
2018,08,14,12,48,22.70
2018,08,14,12,49,22.60
2018,08,14,12,50,22.50
2018,08,14,12,51,22.40
2018,08,14,12,52,22.20
2018,08,14,12,53,22.10
2018,08,14,12,54,22.00
2018,08,14,12,55,22.00
2018,08,14,12,56,21.90
2018,08,14,12,57,21.90
2018,08,14,12,58,21.80
2018,08,14,12,59,21.80
2018,08,14,13,00,21.80
2018,08,14,13,01,21.80
2018,08,14,13,02,21.70
2018,08,14,13,03,21.70
2018,08,14,13,04,21.60
2018,08,14,13,05,21.50
2018,08,14,13,06,21.50
2018,08,14,13,07,21.40
2018,08,14,13,08,21.40
2018,08,14,13,09,21.40
2018,08,14,13,10,21.30
2018,08,14,13,11,21.30
2018,08,14,13,12,21.30
2018,08,14,13,13,21.30
2018,08,14,13,14,21.30
2018,08,14,13,15,21.30
2018,08,14,13,16,21.30
2018,08,14,13,17,21.30
2018,08,14,13,18,21.30
2018,08,14,13,19,21.30
2018,08,14,13,20,21.40
2018,08,14,13,21,21.40
2018,08,14,13,22,21.50
2018,08,14,13,23,21.60
2018,08,14,13,24,21.70
2018,08,14,13,25,21.80
2018,08,14,13,26,21.90
2018,08,14,13,27,21.90
2018,08,14,13,28,22.00
2018,08,14,13,29,22.10
2018,08,14,13,30,22.10
2018,08,14,13,31,22.20
2018,08,14,13,32,22.20
2018,08,14,13,33,22.20
2018,08,14,13,34,22.20
2018,08,14,13,35,22.30
2018,08,14,13,36,22.30
2018,08,14,13,37,22.30
2018,08,14,13,38,22.30
2018,08,14,13,39,22.30
2018,08,14,13,40,22.30
2018,08,14,13,41,22.40
2018,08,14,13,42,22.40
2018,08,14,13,43,22.50
2018,08,14,13,44,22.50
2018,08,14,13,45,22.50
2018,08,14,13,46,22.50
2018,08,14,13,47,22.40
2018,08,14,13,48,22.40
2018,08,14,13,49,22.40
2018,08,14,13,50,22.40
2018,08,14,13,51,22.50
2018,08,14,13,52,22.50
2018,08,14,13,53,22.60
2018,08,14,13,54,22.70
2018,08,14,13,55,22.80
2018,08,14,13,56,22.90
2018,08,14,13,57,23.00
2018,08,14,13,58,23.00
2018,08,14,13,59,23.10
2018,08,14,14,00,23.20
2018,08,14,14,01,23.30
2018,08,14,14,02,23.30
2018,08,14,14,03,23.40
2018,08,14,14,04,23.50
2018,08,14,14,05,23.50
2018,08,14,14,06,23.60
2018,08,14,14,07,23.60
2018,08,14,14,08,23.60
2018,08,14,14,09,23.60
2018,08,14,14,10,23.60
2018,08,14,14,11,23.60
2018,08,14,14,12,23.60
2018,08,14,14,13,23.60
2018,08,14,14,14,23.60
2018,08,14,14,15,23.70
2018,08,14,14,16,23.70
2018,08,14,14,17,23.70
2018,08,14,14,18,23.70
2018,08,14,14,19,23.80
2018,08,14,14,20,23.80
2018,08,14,14,21,23.80
2018,08,14,14,22,23.90
2018,08,14,14,23,23.90
2018,08,14,14,24,24.00
2018,08,14,14,25,24.10
2018,08,14,14,26,24.20
2018,08,14,14,27,24.30
2018,08,14,14,28,24.40
2018,08,14,14,29,24.50
2018,08,14,14,30,24.60
2018,08,14,14,31,24.70
2018,08,14,14,32,24.70
2018,08,14,14,33,24.80
2018,08,14,14,34,24.80
2018,08,14,14,35,24.80
2018,08,14,14,36,24.80
2018,08,14,14,37,24.80
2018,08,14,14,38,24.80
2018,08,14,14,39,24.80
2018,08,14,14,40,24.80
2018,08,14,14,41,24.90
2018,08,14,14,42,24.90
2018,08,14,14,43,25.00
2018,08,14,14,44,25.00
2018,08,14,14,45,25.00
2018,08,14,14,46,25.10
2018,08,14,14,47,25.10
2018,08,14,14,48,25.20
2018,08,14,14,49,25.20
2018,08,14,14,50,25.20
2018,08,14,14,51,25.20
2018,08,14,14,52,25.30
2018,08,14,14,53,25.30
2018,08,14,14,54,25.30
2018,08,14,14,55,25.30
2018,08,14,14,56,25.40
2018,08,14,14,57,25.40
2018,08,14,14,58,25.40
2018,08,14,14,59,25.40
2018,08,14,15,00,25.50
2018,08,14,15,01,25.50
2018,08,14,15,02,25.60
2018,08,14,15,03,25.60
2018,08,14,15,04,25.60
2018,08,14,15,05,25.70
2018,08,14,15,06,25.70
2018,08,14,15,07,25.70
2018,08,14,15,08,25.70
2018,08,14,15,09,25.70
2018,08,14,15,10,25.80
2018,08,14,15,11,25.80
2018,08,14,15,12,25.80
2018,08,14,15,13,25.80
2018,08,14,15,14,25.80
2018,08,14,15,15,25.70
2018,08,14,15,16,25.60
2018,08,14,15,17,25.60
2018,08,14,15,18,25.50
2018,08,14,15,19,25.50
2018,08,14,15,20,25.50
2018,08,14,15,21,25.40
2018,08,14,15,22,25.40
2018,08,14,15,23,25.50
2018,08,14,15,24,25.60
2018,08,14,15,25,25.60
2018,08,14,15,26,25.70
2018,08,14,15,27,25.80
2018,08,14,15,28,26.00
2018,08,14,15,29,26.10
2018,08,14,15,30,26.20
2018,08,14,15,31,26.30
2018,08,14,15,32,26.40
2018,08,14,15,33,26.50
2018,08,14,15,34,26.60
2018,08,14,15,35,26.70
2018,08,14,15,36,26.80
2018,08,14,15,37,26.80
2018,08,14,15,38,26.80
2018,08,14,15,39,26.80
2018,08,14,15,40,26.80
2018,08,14,15,41,26.80
2018,08,14,15,42,26.80
2018,08,14,15,43,26.70
2018,08,14,15,44,26.70
2018,08,14,15,45,26.70
2018,08,14,15,46,26.60
2018,08,14,15,47,26.60
2018,08,14,15,48,26.60
2018,08,14,15,49,26.60
2018,08,14,15,50,26.70
2018,08,14,15,51,26.70
2018,08,14,15,52,26.70
2018,08,14,15,53,26.70
2018,08,14,15,54,26.70
2018,08,14,15,55,26.70
2018,08,14,15,56,26.80
2018,08,14,15,57,26.70
2018,08,14,15,58,26.70
2018,08,14,15,59,26.80
2018,08,14,16,00,26.80
2018,08,14,16,01,26.80
2018,08,14,16,02,26.90
2018,08,14,16,03,27.00
2018,08,14,16,04,27.10
2018,08,14,16,05,27.20
2018,08,14,16,06,27.20
2018,08,14,16,07,27.20
2018,08,14,16,08,27.20
2018,08,14,16,09,27.20
2018,08,14,16,10,27.20
2018,08,14,16,11,27.20
2018,08,14,16,12,27.20
2018,08,14,16,13,27.20
2018,08,14,16,14,27.20
2018,08,14,16,15,27.20
2018,08,14,16,16,27.20
2018,08,14,16,17,27.20
2018,08,14,16,18,27.20
2018,08,14,16,19,27.30
2018,08,14,16,20,27.30
2018,08,14,16,21,27.40
2018,08,14,16,22,27.40
2018,08,14,16,23,27.40
2018,08,14,16,24,27.40
2018,08,14,16,25,27.30
2018,08,14,16,26,27.30
2018,08,14,16,27,27.20
2018,08,14,16,28,27.20
2018,08,14,16,29,27.20
2018,08,14,16,30,27.20
2018,08,14,16,31,27.20
2018,08,14,16,32,27.20
2018,08,14,16,33,27.10
2018,08,14,16,34,27.10
2018,08,14,16,35,27.10
2018,08,14,16,36,27.00
2018,08,14,16,37,27.00
2018,08,14,16,38,26.90
2018,08,14,16,39,26.90
2018,08,14,16,40,26.90
2018,08,14,16,41,26.90
2018,08,14,16,42,26.90
2018,08,14,16,43,26.90
2018,08,14,16,44,26.80
2018,08,14,16,45,26.80
2018,08,14,16,46,26.80
2018,08,14,16,47,26.80
2018,08,14,16,48,26.80
2018,08,14,16,49,26.90
2018,08,14,16,50,27.00
2018,08,14,16,51,27.10
2018,08,14,16,52,27.20
2018,08,14,16,53,27.30
2018,08,14,16,54,27.40
2018,08,14,16,55,27.50
2018,08,14,16,56,27.60
2018,08,14,16,57,27.60
2018,08,14,16,58,27.50
2018,08,14,16,59,27.40
2018,08,14,17,00,27.40
2018,08,14,17,01,27.40
2018,08,14,17,02,27.40
2018,08,14,17,03,27.40
2018,08,14,17,04,27.40
2018,08,14,17,05,27.30
2018,08,14,17,06,27.30
2018,08,14,17,07,27.30
2018,08,14,17,08,27.20
2018,08,14,17,09,27.20
2018,08,14,17,10,27.20
2018,08,14,17,11,27.20
2018,08,14,17,12,27.20
2018,08,14,17,13,27.20
2018,08,14,17,14,27.30
2018,08,14,17,15,27.40
2018,08,14,17,16,27.40
2018,08,14,17,17,27.50
2018,08,14,17,18,27.60
2018,08,14,17,19,27.60